Newberry, MI

2:53 PM EDT on August 18, 2017 (GMT -0400)
Luce County

Weather History for KERY - March, 2013

Change the Weather History Date:

Tuesday, March 12, 2013

  Actual Average Record
Temperature  
Mean Temperature 24 °F -  
Max Temperature 30 °F 31 °F 58 °F (2016)
Min Temperature 17 °F 12 °F -17 °F (1984)
Degree Days  
Heating Degree Days 42    
Moisture  
Dew Point 20 °F    
Average Humidity 87    
Maximum Humidity 100    
Minimum Humidity 74    
Precipitation  
Precipitation 0.00 in - - ()
Sea Level Pressure  
Sea Level Pressure 29.68 in    
Wind  
Wind Speed 10 mph (West)    
Max Wind Speed 15 mph    
Max Gust Speed 23 mph    
Visibility 6 miles    
Events Snow    
Averages and records for this station are not official NWS values.
T = Trace of Precipitation, MM = Missing Value Source: NWS Daily Summary

Daily Weather History Graph

Daily Weather History Graph

Search for Another Location

Airport or City:

Trip Planner

Search our weather history database for the weather conditions in past years. The results will help you decide how hot, cold, wet, or windy it might be!

Date:

Astronomy

Mar. 12, 2013 Rise Set
Actual Time 7:59 AM EDT 7:43 PM EDT
Civil Twilight 7:29 AM EDT 8:13 PM EDT
Nautical Twilight 6:55 AM EDT 8:48 PM EDT
Astronomical Twilight 6:19 AM EDT 9:24 PM EDT
Moon 8:00 AM EDT (3/12) 9:05 PM EDT (3/12)
Length of Visible Light 12h 43m
Length of Day
11h 44m
New Moon, 1% of the Moon is Illuminated
Mar 12
New Moon
Mar 19
First Quarter
Mar 27
Full
Apr 3
Last Quarter
Apr 10
New

Hourly Weather History & Observations

Time (EDT) Temp. Windchill Dew Point Humidity Pressure Visibility Wind Dir Wind Speed Gust Speed Precip Events Conditions
12:15 AM 30.2 °F 21.9 °F 28.4 °F 93% 29.45 in 2.5 mi NW 9.2 mph 17.3 mph N/A Snow Light Snow
12:34 AM 30.2 °F 21.9 °F 28.4 °F 93% 29.46 in 3.0 mi NW 9.2 mph - N/A Snow Light Snow
12:54 AM 30.2 °F 21.3 °F 28.4 °F 93% 29.47 in 4.0 mi NW 10.4 mph 18.4 mph N/A Snow Light Snow
1:14 AM 28.4 °F 19.1 °F 26.6 °F 93% 29.48 in 7.0 mi NW 10.4 mph 16.1 mph N/A Snow Light Snow
1:34 AM 28.4 °F 21.2 °F 26.6 °F 93% 29.48 in 7.0 mi NW 6.9 mph - N/A   Overcast
2:14 AM 28.4 °F 20.4 °F 26.6 °F 93% 29.50 in 3.0 mi NW 8.1 mph - N/A Snow Light Snow
2:34 AM 28.4 °F 19.1 °F 26.6 °F 93% 29.52 in 2.5 mi WNW 10.4 mph - N/A Snow Light Snow
2:55 AM 26.6 °F 15.7 °F 26.6 °F 100% 29.53 in 3.0 mi WNW 12.7 mph - N/A Snow Light Snow
3:14 AM 26.6 °F 18.2 °F 24.8 °F 93% 29.54 in 7.0 mi NW 8.1 mph - N/A Snow Light Snow
3:35 AM 26.6 °F 17.5 °F 24.8 °F 93% 29.54 in 10.0 mi WNW 9.2 mph - N/A   Overcast
3:54 AM 26.6 °F 15.7 °F 23.0 °F 86% 29.56 in 10.0 mi WNW 12.7 mph - N/A   Overcast
4:14 AM 24.8 °F 16.1 °F 23.0 °F 93% 29.56 in 10.0 mi WNW 8.1 mph - N/A   Overcast
4:35 AM 24.8 °F 16.9 °F 23.0 °F 93% 29.56 in 10.0 mi WNW 6.9 mph - N/A   Overcast
4:54 AM 24.8 °F 17.9 °F 23.0 °F 93% 29.57 in 10.0 mi NW 5.8 mph 16.1 mph N/A   Overcast
5:14 AM 24.8 °F 15.3 °F 21.2 °F 86% 29.58 in 10.0 mi WNW 9.2 mph - N/A   Overcast
5:34 AM 24.8 °F 17.9 °F 21.2 °F 86% 29.59 in 10.0 mi NW 5.8 mph - N/A   Overcast
5:54 AM 24.8 °F 17.9 °F 21.2 °F 86% 29.60 in 10.0 mi WNW 5.8 mph - N/A   Overcast
6:15 AM 24.8 °F 19.1 °F 23.0 °F 93% 29.60 in 5.0 mi NW 4.6 mph - N/A   Overcast
6:34 AM 24.8 °F 16.9 °F 23.0 °F 93% 29.61 in 5.0 mi WNW 6.9 mph - N/A   Overcast
6:54 AM 24.8 °F 19.1 °F 23.0 °F 93% 29.61 in 4.0 mi WNW 4.6 mph - N/A   Overcast
7:15 AM 24.8 °F 19.1 °F 23.0 °F 93% 29.61 in 5.0 mi WNW 4.6 mph - N/A   Overcast
7:34 AM 24.8 °F 14.0 °F 23.0 °F 93% 29.62 in 7.0 mi West 11.5 mph - N/A   Overcast
7:55 AM 24.8 °F 14.0 °F 21.2 °F 86% 29.63 in 7.0 mi West 11.5 mph - N/A   Overcast
8:14 AM 24.8 °F 14.0 °F 21.2 °F 86% 29.64 in 10.0 mi West 11.5 mph - N/A   Overcast
8:35 AM 24.8 °F 13.4 °F 21.2 °F 86% 29.65 in 10.0 mi West 12.7 mph - N/A   Overcast
8:55 AM 23.0 °F 10.1 °F 21.2 °F 93% 29.66 in 10.0 mi West 15.0 mph 18.4 mph N/A   Overcast
9:14 AM 23.0 °F 10.6 °F 19.4 °F 86% 29.67 in 10.0 mi West 13.8 mph 17.3 mph N/A   Overcast
9:35 AM 23.0 °F 11.1 °F 19.4 °F 86% 29.68 in 10.0 mi WNW 12.7 mph - N/A Snow Light Snow
9:54 AM 23.0 °F 13.1 °F 19.4 °F 86% 29.68 in 10.0 mi West 9.2 mph - N/A Snow Light Snow
10:15 AM 23.0 °F 13.9 °F 19.4 °F 86% 29.68 in 0.5 mi West 8.1 mph - N/A Snow Snow
10:34 AM 23.0 °F 13.9 °F 21.2 °F 93% 29.69 in 0.8 mi West 8.1 mph - N/A Snow Light Snow
10:55 AM 23.0 °F 13.1 °F 19.4 °F 86% 29.68 in 1.5 mi West 9.2 mph - N/A Snow Light Snow
11:14 AM 23.0 °F 12.4 °F 21.2 °F 93% 29.68 in 2.0 mi West 10.4 mph - N/A Snow Light Snow
11:34 AM 24.8 °F 14.0 °F 19.4 °F 80% 29.68 in 4.0 mi West 11.5 mph - N/A Snow Light Snow
11:55 AM 24.8 °F 17.9 °F 21.2 °F 86% 29.69 in 1.5 mi West 5.8 mph 9.2 mph N/A Snow Light Snow
12:14 PM 24.8 °F 16.1 °F 19.4 °F 80% 29.69 in 3.0 mi West 8.1 mph - N/A Snow Light Snow
12:34 PM 24.8 °F 13.4 °F 19.4 °F 80% 29.70 in 7.0 mi West 12.7 mph 16.1 mph N/A   Overcast
12:55 PM 24.8 °F 16.1 °F 21.2 °F 86% 29.70 in 0.8 mi WSW 8.1 mph - N/A Snow Light Snow
1:14 PM 24.8 °F 16.1 °F 21.2 °F 86% 29.71 in 0.5 mi WSW 8.1 mph - N/A Snow Snow
1:34 PM 24.8 °F 14.0 °F 21.2 °F 86% 29.71 in 1.0 mi SW 11.5 mph - N/A Snow Light Snow
1:55 PM 24.8 °F 13.4 °F 21.2 °F 86% 29.71 in 1.2 mi WSW 12.7 mph - N/A Snow Light Snow
2:14 PM 24.8 °F 14.6 °F 21.2 °F 86% 29.71 in 1.8 mi WSW 10.4 mph - N/A Snow Light Snow
2:35 PM 24.8 °F 14.0 °F 19.4 °F 80% 29.72 in 2.5 mi West 11.5 mph - N/A Snow Light Snow
2:54 PM 24.8 °F 12.4 °F 19.4 °F 80% 29.72 in 10.0 mi West 15.0 mph 23.0 mph N/A   Overcast
3:14 PM 24.8 °F 12.9 °F 19.4 °F 80% 29.72 in 10.0 mi WNW 13.8 mph - N/A   Overcast
3:35 PM 24.8 °F 13.4 °F 17.6 °F 74% 29.72 in 10.0 mi WNW 12.7 mph - N/A   Overcast
3:54 PM 24.8 °F 13.4 °F 17.6 °F 74% 29.73 in 7.0 mi West 12.7 mph - N/A Snow Light Snow
4:14 PM 24.8 °F 12.9 °F 17.6 °F 74% 29.73 in 5.0 mi WNW 13.8 mph - N/A Snow Light Snow
4:35 PM 24.8 °F 12.9 °F 17.6 °F 74% 29.74 in 10.0 mi West 13.8 mph 17.3 mph N/A Snow Light Snow
4:54 PM 24.8 °F 13.4 °F 19.4 °F 80% 29.75 in 7.0 mi West 12.7 mph 16.1 mph N/A Snow Light Snow
5:15 PM 23.0 °F 10.6 °F 17.6 °F 80% 29.75 in 5.0 mi West 13.8 mph - N/A Snow Light Snow
5:35 PM 23.0 °F 11.7 °F 17.6 °F 80% 29.76 in 10.0 mi WNW 11.5 mph - N/A   Overcast
5:54 PM 23.0 °F 10.1 °F 17.6 °F 80% 29.76 in 7.0 mi West 15.0 mph - N/A Snow Light Snow
6:15 PM 21.2 °F 9.5 °F 17.6 °F 86% 29.77 in 2.0 mi West 11.5 mph - N/A Snow Light Snow
6:34 PM 21.2 °F 8.9 °F 19.4 °F 93% 29.78 in 1.8 mi WSW 12.7 mph 18.4 mph N/A Snow Light Snow
6:54 PM 21.2 °F 10.9 °F 17.6 °F 86% 29.78 in 1.5 mi WSW 9.2 mph - N/A Snow Light Snow
7:15 PM 21.2 °F 8.9 °F 17.6 °F 86% 29.79 in 2.0 mi West 12.7 mph - N/A Snow Light Snow
7:34 PM 21.2 °F 9.5 °F 17.6 °F 86% 29.79 in 2.0 mi West 11.5 mph 16.1 mph N/A Snow Light Snow
7:54 PM 19.4 °F 7.9 °F 15.8 °F 86% 29.79 in 4.0 mi WSW 10.4 mph - N/A Snow Light Snow
8:15 PM 19.4 °F 10.4 °F 15.8 °F 86% 29.80 in 4.0 mi WSW 6.9 mph - N/A Snow Light Snow
8:34 PM 19.4 °F 9.5 °F 15.8 °F 86% 29.80 in 7.0 mi WSW 8.1 mph - N/A Snow Light Snow
8:54 PM 19.4 °F 8.6 °F 15.8 °F 86% 29.80 in 5.0 mi West 9.2 mph 16.1 mph N/A Snow Light Snow
9:14 PM 19.4 °F 9.5 °F 15.8 °F 86% 29.80 in 4.0 mi WSW 8.1 mph - N/A Snow Light Snow
9:34 PM 19.4 °F 10.4 °F 15.8 °F 86% 29.80 in 10.0 mi WSW 6.9 mph - N/A Snow Light Snow
9:55 PM 19.4 °F 9.5 °F 15.8 °F 86% 29.80 in 10.0 mi WSW 8.1 mph - N/A   Overcast
10:14 PM 19.4 °F 10.4 °F 15.8 °F 86% 29.80 in 5.0 mi SW 6.9 mph - N/A Snow Light Snow
10:35 PM 19.4 °F 9.5 °F 15.8 °F 86% 29.80 in 3.0 mi SW 8.1 mph - N/A Snow Light Snow
10:54 PM 19.4 °F 9.5 °F 15.8 °F 86% 29.80 in 3.0 mi SW 8.1 mph - N/A Snow Light Snow
11:15 PM 17.6 °F 8.2 °F 15.8 °F 93% 29.80 in 4.0 mi WSW 6.9 mph - N/A Snow Light Snow
11:34 PM 19.4 °F 9.5 °F 15.8 °F 86% 29.79 in 4.0 mi WSW 8.1 mph - N/A Snow Light Snow
11:54 PM 19.4 °F 9.5 °F 15.8 °F 86% 29.79 in 1.2 mi WNW 8.1 mph - N/A Snow Light Snow